Home   Weather   Düren   Past weeks

Flag for Germany Past Weather in Düren, North Rhine-Westphalia, Germany — Yesterday and Last 2 Weeks

45 °F


Feels Like: 41 °F
Forecast: 40 / 51 °F
Wind: 7 mph from North

Location: Noervenich

Current Time: Oct 21, 2016 at 11:21:30 AM

Latest Report: Oct 21, 2016 at 10:20 AM

Visibility: 2 mi

Pressure: 30.01 "Hg

Humidity: 93%

Dew Point: 43 °F

Location of DürenLocation

Past Weather in Düren — Graph


Düren Temperature Yesterday

Maximum temperature yesterday: 46 °F (at 2:20 AM)
Minimum temperature yesterday: 45 °F (at 12:20 AM)
Average temperature yesterday: 46 °F

High & Low Weather Summary for the Past Weeks

High68 °F (Oct 16, 3:20 PM)100% (Oct 11, 6:20 AM)30.27 "Hg (Oct 11, 6:20 AM)
Low37 °F (Oct 11, 5:20 AM)48% (Oct 8, 3:20 PM)29.65 "Hg (Oct 15, 2:20 AM)
Average49 °F82%30.06 "Hg
* Reported Oct 6 9:20 AM — Oct 21 9:20 AM, Düren, Weather by CustomWeather, © 2016

Note: Actual official high and low records may vary slightly from our data, if they occured in-between our weather recording intervals... More about our weather records


Düren Weather History for the Previous 24 Hours

Scroll right to see more
Time TempWeatherWind HumidityBarometerVisibility
9:20 AM
Fri, Oct 21
45 °FFog.5 mph93%30.01 "Hg2 mi
8:20 AM45 °FLight rain. Fog.3 mph100%29.98 "Hg2 mi
7:20 AM45 °FDrizzle. Fog.5 mph100%29.98 "Hg2 mi
6:20 AM45 °FDrizzle. Fog.5 mph100%29.95 "Hg2 mi
5:20 AM45 °FDrizzle. Fog.2 mph93%29.95 "Hg1 mi
4:20 AM45 °FDrizzle. Fog.5 mph93%29.95 "Hg2 mi
3:56 AM45 °FFog.7 mph93%29.98 "Hg2 mi
3:20 AM45 °FFog.6 mph93%29.95 "Hg1 mi
2:20 AM45 °FFog.7 mph93%29.98 "Hg1 mi
1:20 AM45 °FFog.5 mph93%29.98 "Hg1 mi
12:20 AM45 °FFog.5 mph93%29.98 "Hg2 mi
11:52 PM
Thu, Oct 20
45 °FFog.5 mph93%29.95 "Hg2 mi
11:20 PM45 °FFog.6 mph93%29.95 "Hg2 mi
10:20 PM45 °FPartly cloudy.5 mph100%29.95 "Hg4 mi
9:20 PM46 °FPartly cloudy.5 mph93%29.95 "HgN/A
8:20 PM45 °FPartly cloudy.2 mph93%29.92 "HgN/A
7:46 PM45 °FPartly cloudy.2 mph93%29.92 "Hg6 mi
7:20 PM45 °FPartly cloudy.3 mph100%29.92 "Hg4 mi
6:47 PM45 °FFog.7 mph100%29.89 "Hg3 mi
6:20 PM46 °FRain. Fog.6 mph93%29.89 "Hg3 mi
5:20 PM46 °FRain showers. Fog.3 mph93%29.89 "Hg2 mi
4:49 PM46 °FRain. Fog.5 mph93%29.86 "Hg2 mi
4:20 PM46 °FLight rain. Fog.6 mph93%29.86 "Hg3 mi
4:03 PM46 °FLight rain. Fog.5 mph100%29.86 "Hg3 mi
3:20 PM46 °FRain. Fog.3 mph93%29.86 "Hg2 mi
2:20 PM46 °FRain. Fog.3 mph93%29.89 "Hg2 mi
1:20 PM46 °FRain. Fog.2 mph93%29.92 "Hg2 mi
12:20 PM46 °FRain. Fog.6 mph93%29.92 "Hg2 mi
11:20 AM46 °FRain. Fog.6 mph93%29.92 "Hg2 mi
Weather by CustomWeather, © 2016

See weather overviewHow to use our weather pages